Temperature
21 22 23 23 23 21 21 19 20 20 19 20 19 19 20 21 21 21 21 22 22 21 21 20 20 20 20 19 19 18 18 18 18 17 17 17 17 17 16 16 16 16 16 16
22 22 23 23 23 22 22 21 20 21 20 19 19 20 20 20 21 21 21 21 22 21 21 20 20 20 19 19 19 18 18 18 18 17 17 17 17 16 16 16 16 16 16 15
20 22 23 22 21 21 21 20 20 21 20 18 18 18 19 20 21 21 22 22 22 21 21 20 20 20 19 19 18 18 18 18 17 17 17 17 16 16 16 16 15 15 15 15
18 21 22 20 20 21 20 19 19 19 18 18 18 19 20 20 21 21 21 22 21 21 21 21 20 20 19 18 18 18 17 17 17 17 16 16 16 16 15 15 15 15 15 14
16 19 20 21 20 20 20 19 18 18 17 18 18 19 19 20 20 21 21 21 21 21 21 20 20 19 19 18 18 17 17 17 16 16 16 16 16 15 15 15 15 14 14 14
16 19 20 20 20 20 20 20 19 18 17 18 18 18 18 20 20 21 21 21 21 21 20 20 20 19 19 18 17 17 17 17 16 16 16 16 15 15 15 14 14 14 14 14
17 19 19 19 19 20 20 19 19 18 18 18 18 18 19 20 20 20 20 20 20 20 20 19 19 19 18 18 17 17 16 16 16 16 16 15 15 15 14 14 14 14 14 13
15 18 19 18 18 18 18 18 18 18 19 19 19 19 19 20 20 20 20 19 19 19 19 19 18 18 17 17 17 17 16 16 16 15 15 15 15 14 14 14 14 13 13 13
15 16 16 16 17 18 18 18 19 19 19 20 19 19 19 19 19 19 19 19 18 18 18 18 18 17 17 17 16 16 16 15 15 15 15 14 14 14 14 13 13 13 13 12
14 15 15 16 17 18 19 19 19 19 19 19 19 19 19 19 19 19 18 18 18 18 17 17 17 17 16 16 16 16 15 15 15 15 14 14 14 13 13 13 13 13 12 12
14 15 16 17 17 18 18 19 19 19 19 19 19 18 18 18 18 18 17 17 17 17 17 16 16 16 16 16 15 15 15 15 14 14 14 14 13 13 13 12 12 12 12 12
14 15 15 16 17 18 18 18 18 18 18 18 18 18 17 17 17 17 17 17 17 16 16 16 15 16 15 15 15 15 14 14 14 14 13 13 13 12 12 12 12 12 11 11
16 16 16 17 17 17 18 18 17 18 17 17 17 17 17 16 16 16 16 16 16 15 15 15 15 15 15 15 14 14 14 14 13 13 13 13 12 12 12 12 11 11 11 11
17 17 16 16 16 17 17 17 17 17 17 17 16 16 16 16 16 15 15 15 15 15 15 15 15 15 14 14 14 14 13 13 13 13 12 12 12 12 12 11 11 11 11 10
17 17 16 16 16 16 17 17 17 16 16 16 16 16 15 15 15 15 15 15 14 14 14 14 14 14 14 13 13 13 13 12 12 12 12 12 11 11 11 11 11 10 10 10
16 16 16 16 16 16 16 16 16 16 15 15 15 15 14 14 14 14 14 14 14 14 14 13 13 13 13 13 12 12 12 12 12 11 11 11 11 11 11 11 10 10 10 9
16 15 15 15 15 15 15 15 15 15 15 15 14 14 14 14 14 14 14 13 13 13 13 13 13 13 12 12 12 12 12 12 11 11 11 11 11 11 10 10 10 10 9 9
15 15 15 15 15 15 15 14 14 14 14 14 14 14 13 13 13 13 13 13 13 13 12 12 12 12 12 12 12 11 11 11 11 11 11 10 10 10 10 10 10 9 9 9
15 15 15 15 14 14 14 14 14 14 13 13 13 13 13 13 13 13 13 12 12 12 12 12 12 12 12 12 11 11 11 11 11 10 10 10 10 10 10 10 9 9 9 9
14 14 14 14 13 13 13 13 13 13 13 13 13 12 12 12 12 12 12 12 11 11 11 11 11 11 11 11 11 11 11 10 10 10 10 10 10 10 9 9 9 9 9 8
13 13 13 13 13 13 13 12 12 12 12 12 12 12 12 12 12 11 11 11 11 11 11 11 11 11 11 10 10 10 10 10 10 10 10 10 10 9 9 9 9 9 9 8
12 12 12 12 12 12 12 12 12 12 12 11 11 11 11 11 11 11 10 10 10 10 10 10 10 10 10 10 10 10 10 10 10 9 9 9 9 9 9 9 9 9 8 8
12 12 12 11 11 11 11 11 11 11 11 11 11 11 11 11 10 10 10 10 10 10 10 10 10 10 10 10 10 10 10 10 9 9 9 9 9 9 9 9 8 8 8 8
11 11 11 11 11 11 11 11 11 11 10 10 10 10 10 10 10 10 10 10 9 9 9 9 9 9 9 9 9 9 9 9 9 9 9 9 9 9 8 8 8 8 8 8
10 10 10 10 10 10 10 10 10 10 10 10 10 10 10 10 9 9 9 9 9 9 9 9 9 9 9 9 9 9 9 9 9 9 8 8 8 8 8 8 8 8 8 8
10 10 10 10 10 10 10 10 10 10 10 10 10 9 9 9 9 9 9 9 9 9 9 9 9 9 9 9 9 9 9 9 8 8 8 8 8 8 8 8 8 8 7 7
9 9 9 9 9 10 10 10 10 10 10 9 9 9 9 9 9 9 9 9 9 9 9 9 8 8 8 8 8 8 8 8 8 8 8 8 8 8 8 8 7 7 7 7
Wind_Speed
5 4 4 4 5 7 6 8 9 8 8 9 7 5 4 3 4 4 4 3 3 3 3 2 2 2 3 4 4 4 4 4 3 3 3 3 3 3 3 3 3 3 3 2
2 1 3 2 2 5 4 4 5 3 6 6 2 2 2 3 5 5 5 5 4 4 4 4 4 3 3 3 4 5 5 4 3 3 4 4 3 4 4 4 4 3 3 3
3 1 3 0 2 3 3 2 5 6 6 1 2 3 4 4 5 5 6 5 5 5 5 4 4 4 4 3 3 4 4 3 3 3 3 3 3 4 4 3 3 4 3 4
4 4 4 6 2 3 4 1 2 3 3 3 4 2 2 2 4 4 3 4 4 4 4 3 3 4 4 4 4 4 4 4 3 4 4 3 3 3 3 3 3 3 3 3
5 5 2 3 2 3 4 1 1 2 2 2 3 4 3 1 2 3 3 3 3 3 4 4 4 4 5 4 4 4 4 4 3 4 4 4 4 3 3 3 3 3 2 3
6 6 6 7 2 1 5 1 2 3 3 3 5 3 2 1 1 2 2 2 3 3 4 4 4 5 6 5 4 4 4 4 4 4 4 5 4 3 3 3 3 3 3 3
5 4 5 4 3 1 4 6 2 3 4 5 3 3 2 2 4 4 5 4 4 4 4 3 3 5 5 4 4 4 4 4 4 4 4 4 4 3 4 5 5 4 4 3
5 4 5 3 2 5 5 1 2 3 3 5 4 3 3 5 5 5 6 5 5 5 4 4 4 5 4 2 2 3 4 4 4 4 4 4 5 4 5 5 5 4 3 3
5 5 3 3 1 1 2 3 2 3 3 6 6 4 4 4 5 5 5 5 5 5 5 4 3 3 3 1 1 4 4 4 4 4 4 4 5 5 4 4 4 3 2 2
3 1 2 3 2 3 2 2 2 3 3 4 5 5 5 4 4 4 5 4 4 5 5 4 3 3 2 1 2 4 5 4 5 5 5 4 4 3 4 3 3 3 2 2
2 0 2 4 4 3 5 6 6 5 4 4 5 4 4 4 4 4 4 4 4 4 4 3 3 3 2 2 4 4 4 4 4 4 5 5 4 3 2 2 2 3 2 3
5 5 4 1 1 2 5 5 5 6 6 5 5 4 4 4 4 3 4 3 4 4 4 3 3 2 2 2 4 5 4 3 3 3 4 4 5 4 7 4 5 4 3 3
3 3 4 3 3 4 5 6 6 6 6 6 5 5 4 3 3 3 4 3 3 3 2 2 2 2 2 2 3 4 4 3 3 3 4 4 4 4 3 4 7 7 5 4
4 6 5 3 3 4 6 6 7 7 6 5 5 5 5 4 3 3 2 2 2 3 3 2 2 2 1 1 3 3 4 4 4 3 4 4 4 3 3 4 3 3 4 5
4 5 5 5 5 5 5 5 7 5 5 4 4 4 4 3 2 1 1 2 2 3 3 3 3 2 1 2 3 3 4 3 3 3 3 4 4 4 3 3 3 3 2 3
5 7 6 6 5 4 4 4 4 3 3 2 2 2 2 2 2 2 1 2 2 2 1 2 1 1 1 2 3 3 3 5 5 4 3 3 3 4 3 3 3 3 2 1
5 4 4 3 3 2 1 2 3 2 2 2 1 2 2 2 3 3 3 3 2 2 1 1 1 1 2 2 3 3 3 4 5 4 3 3 3 3 3 3 3 2 1 1
3 3 3 4 3 2 1 2 2 2 2 2 2 2 2 2 2 1 1 2 3 3 2 2 1 2 2 2 3 3 3 3 3 3 3 3 3 3 3 3 3 2 1 1
4 3 3 3 3 3 2 2 2 2 2 3 3 2 2 2 1 1 1 1 1 1 2 2 2 2 2 2 3 3 3 3 3 3 3 3 3 2 2 2 2 2 2 2
3 3 4 3 3 3 2 2 2 2 1 2 3 3 2 2 2 2 1 1 1 1 0 1 2 1 1 2 3 3 3 3 3 3 3 2 2 2 2 2 2 2 2 2
3 3 3 2 2 2 2 2 2 1 1 2 2 2 2 1 2 2 2 1 2 1 1 2 1 1 1 2 3 3 3 3 3 3 3 2 2 2 2 2 2 2 2 2
2 2 2 2 2 2 1 1 2 2 2 2 2 3 3 2 2 2 2 1 0 1 1 1 1 2 3 4 3 3 3 3 3 3 2 2 2 2 2 2 2 2 2 2
1 1 2 2 2 2 1 1 1 2 2 2 2 3 3 2 2 2 1 1 1 2 2 2 2 4 5 4 3 3 4 3 3 2 2 2 2 2 2 2 1 1 1 1
1 1 1 2 3 3 2 1 2 2 2 2 2 3 3 3 2 2 1 2 3 3 3 3 5 5 5 3 3 3 3 3 3 3 2 2 2 2 2 2 1 1 1 1
1 1 1 2 2 2 1 2 3 3 3 3 3 3 2 2 2 2 2 3 4 4 3 3 5 5 4 3 3 3 3 3 3 3 3 2 2 2 1 1 1 1 1 1
2 1 1 1 1 2 2 2 2 2 3 3 2 2 2 3 3 3 3 3 4 4 3 3 3 3 3 4 4 3 3 3 3 3 3 2 2 1 1 0 0 0 1 1
2 2 2 2 2 2 2 3 3 2 3 3 3 2 3 3 3 4 4 3 3 3 3 3 3 3 3 3 3 4 4 3 3 3 2 2 2 1 1 1 1 1 1 2
Wind_Direction
200 197 159 155 162 163 164 173 177 218 221 247 241 224 215 187 159 147 156 159 158 170 176 179 187 181 176 172 162 155 152 156 168 161 142 126 116 99 94 96 100 101 99 89
141 178 164 134 146 161 169 166 187 200 250 253 235 164 161 165 158 165 181 189 179 175 175 188 196 186 169 163 158 152 156 164 157 144 138 130 122 108 94 84 84 91 96 94
184 239 97 226 241 176 160 170 171 202 236 213 170 187 190 185 174 182 188 187 177 180 187 198 196 184 165 158 138 141 149 145 138 138 133 126 120 111 108 101 88 80 82 84
129 114 185 243 283 139 134 123 219 216 221 198 200 171 138 151 167 182 187 189 187 179 180 181 168 161 149 138 139 142 139 134 132 130 128 120 117 115 108 101 98 85 80 89
119 146 222 281 228 171 154 301 244 181 184 134 121 85 20 5 172 180 188 183 181 171 164 147 141 145 139 139 139 143 149 153 155 148 143 137 131 123 110 106 94 84 84 95
117 135 201 229 247 196 119 300 258 165 164 145 117 124 262 316 91 93 89 104 125 120 116 119 127 130 136 145 149 170 177 172 160 161 155 151 146 132 111 112 106 100 81 69
126 152 238 254 282 125 158 230 219 168 168 157 160 190 168 83 73 71 71 75 89 96 99 106 113 122 133 156 175 182 167 153 153 155 150 140 127 120 121 117 107 94 82 59
127 141 232 298 104 166 203 216 146 151 156 139 125 106 91 84 79 78 72 71 82 88 81 82 102 117 126 177 186 144 140 141 143 139 135 129 124 119 121 122 114 103 90 63
166 190 251 300 239 230 154 145 149 145 148 133 121 114 98 87 84 81 80 80 87 96 83 68 74 107 128 236 150 126 124 131 129 122 116 121 127 128 120 120 123 123 120 108
91 4 342 4 38 46 82 113 110 118 127 129 126 128 115 100 88 78 71 79 90 94 89 75 68 79 123 156 126 125 131 137 134 127 119 109 105 117 127 136 142 146 152 157
91 279 46 24 28 48 61 72 76 75 80 98 109 108 109 100 91 87 83 79 84 92 91 74 62 74 85 119 119 118 127 136 137 135 132 123 109 91 126 129 160 163 173 172
187 203 157 172 350 66 84 77 82 87 75 73 91 101 95 94 92 95 92 89 86 82 78 59 59 62 56 91 122 126 130 137 143 141 137 134 124 90 55 73 85 91 107 128
169 152 138 123 61 67 86 82 81 85 90 85 76 84 91 92 85 84 85 87 95 98 94 77 62 53 56 94 118 131 143 147 144 142 142 144 143 138 113 58 64 70 79 102
128 114 94 80 79 72 87 91 89 85 79 80 82 81 86 83 77 72 69 80 92 95 90 93 87 54 28 83 106 117 124 129 134 139 144 144 142 137 135 134 109 57 46 71
61 96 121 114 89 76 84 96 97 94 88 79 79 85 92 96 90 60 23 76 85 82 77 76 66 36 47 85 99 109 115 119 122 124 129 129 127 124 125 127 121 103 78 58
85 86 96 99 96 87 91 105 114 120 117 111 97 97 104 108 107 82 53 74 96 98 89 85 69 38 73 95 100 99 103 115 118 121 120 123 127 130 128 123 117 114 114 101
112 111 112 117 118 118 118 126 140 147 132 134 144 127 107 92 78 63 43 37 57 56 49 63 48 64 97 116 117 115 110 116 117 119 124 128 130 133 132 132 133 134 132 131
127 148 158 164 163 150 125 108 124 142 159 164 140 125 116 108 104 73 50 52 56 39 24 29 55 80 96 113 119 122 124 125 128 130 129 129 129 131 135 141 143 144 144 132
102 110 101 102 116 122 119 111 115 132 139 130 128 133 133 120 130 128 94 82 73 1 341 18 63 81 92 102 108 117 124 127 125 124 127 129 127 129 141 152 154 161 166 157
93 100 101 91 85 95 94 79 77 76 97 126 129 127 121 127 135 127 108 80 307 278 302 70 85 81 95 116 117 125 131 137 139 135 131 135 143 150 159 167 168 171 177 179
104 107 105 103 91 86 95 101 107 117 124 131 141 150 147 127 117 121 114 46 344 14 61 90 95 102 106 119 119 124 131 134 139 143 148 151 156 164 172 177 178 184 191 196
101 114 116 115 108 87 74 101 125 128 116 112 109 112 114 106 93 82 79 106 335 74 76 71 80 102 115 117 117 121 123 123 127 132 140 150 158 166 171 175 185 197 205 216
114 134 134 140 148 140 108 93 106 122 126 126 124 126 126 121 115 116 92 36 78 92 84 74 85 97 103 98 103 110 112 115 122 130 141 149 154 154 153 157 168 180 199 229
106 117 135 140 135 130 125 94 87 98 109 112 117 127 129 117 81 62 105 112 94 90 81 87 95 95 92 90 100 103 104 107 110 113 111 111 119 128 134 140 143 149 184 241
116 109 115 129 137 155 156 123 102 93 93 91 90 91 98 115 125 118 109 109 98 89 83 83 92 92 87 92 98 101 102 104 109 111 110 112 117 120 122 137 160 200 238 257
111 114 121 139 161 161 144 130 122 114 112 105 86 76 79 89 104 109 103 95 87 80 78 78 82 82 81 84 87 91 93 101 105 105 109 114 113 106 98 95 350 283 293 306
89 89 90 83 79 110 123 125 127 127 129 127 111 92 95 99 101 99 94 90 83 77 76 76 81 86 85 84 88 89 89 91 93 94 92 87 81 79 78 88 78 66 56 45
Height
1510 1507 1507 1509 1512 1518 1521 1527 1535 1530 1528 1518 1513 1513 1513 1515 1517 1519 1520 1522 1525 1527 1529 1530 1531 1532 1533 1534 1535 1536 1537 1538 1539 1539 1540 1540 1540 1540 1541 1541 1542 1542 1542 1543
1509 1507 1507 1510 1511 1513 1515 1519 1521 1521 1521 1511 1510 1512 1513 1514 1516 1518 1520 1522 1524 1526 1527 1529 1530 1531 1532 1533 1534 1535 1536 1537 1538 1538 1539 1539 1539 1539 1540 1541 1541 1541 1541 1541
1520 1511 1509 1519 1514 1513 1513 1514 1516 1519 1514 1510 1510 1510 1511 1513 1514 1516 1518 1520 1522 1524 1526 1528 1529 1530 1531 1533 1534 1534 1535 1536 1537 1537 1538 1538 1539 1539 1539 1540 1540 1540 1540 1540
1523 1518 1530 1520 1508 1507 1511 1512 1511 1510 1509 1509 1509 1509 1511 1512 1513 1515 1517 1519 1521 1523 1525 1527 1529 1530 1531 1532 1533 1533 1535 1535 1536 1537 1537 1538 1538 1538 1539 1539 1540 1540 1540 1540
1528 1529 1524 1514 1507 1508 1511 1513 1509 1509 1508 1508 1509 1510 1511 1511 1512 1514 1516 1519 1521 1522 1524 1526 1528 1529 1530 1531 1532 1533 1534 1534 1535 1536 1536 1536 1537 1538 1538 1539 1539 1540 1540 1540
1525 1528 1531 1515 1504 1504 1508 1515 1508 1507 1508 1508 1509 1515 1513 1511 1512 1514 1516 1518 1520 1521 1523 1525 1526 1527 1529 1530 1530 1531 1532 1533 1534 1534 1535 1535 1536 1537 1537 1538 1538 1539 1539 1539
1521 1523 1519 1506 1503 1505 1518 1515 1506 1506 1507 1508 1509 1511 1512 1512 1513 1514 1516 1518 1519 1521 1522 1524 1525 1526 1527 1528 1529 1530 1531 1532 1532 1533 1534 1534 1535 1535 1536 1537 1537 1538 1538 1538
1521 1523 1521 1504 1503 1507 1508 1504 1504 1506 1507 1508 1509 1511 1511 1512 1513 1515 1516 1518 1519 1521 1522 1523 1524 1525 1526 1527 1528 1527 1529 1530 1531 1531 1532 1533 1534 1534 1535 1535 1536 1536 1537 1537
1511 1514 1507 1504 1503 1503 1503 1503 1505 1506 1507 1508 1509 1511 1512 1513 1514 1516 1516 1519 1520 1521 1522 1523 1524 1524 1524 1525 1526 1526 1527 1528 1529 1530 1531 1532 1532 1533 1533 1534 1534 1535 1536 1536
1507 1506 1505 1504 1504 1504 1504 1505 1506 1507 1509 1509 1510 1512 1513 1514 1515 1516 1517 1519 1520 1521 1522 1523 1523 1524 1524 1523 1523 1525 1526 1527 1528 1528 1529 1530 1531 1531 1532 1532 1533 1534 1534 1535
1507 1506 1504 1505 1505 1505 1506 1507 1508 1509 1511 1512 1512 1513 1514 1515 1516 1517 1519 1520 1521 1521 1522 1523 1523 1523 1523 1522 1523 1524 1525 1526 1526 1526 1527 1527 1528 1530 1530 1531 1532 1533 1533 1534
1506 1503 1505 1507 1507 1508 1508 1509 1510 1511 1512 1513 1514 1515 1516 1517 1518 1519 1520 1520 1521 1522 1522 1523 1523 1523 1523 1522 1523 1523 1524 1524 1524 1525 1526 1526 1527 1528 1529 1530 1531 1531 1532 1532
1500 1502 1504 1506 1508 1510 1510 1511 1512 1513 1514 1515 1516 1517 1518 1519 1520 1520 1520 1521 1521 1522 1522 1522 1522 1522 1522 1522 1522 1523 1523 1523 1524 1524 1525 1525 1526 1526 1527 1528 1529 1530 1530 1531
1501 1503 1505 1507 1509 1511 1511 1512 1513 1514 1515 1516 1517 1518 1519 1520 1520 1521 1521 1521 1521 1521 1521 1520 1521 1521 1521 1521 1521 1522 1522 1522 1523 1523 1524 1524 1525 1526 1527 1527 1528 1528 1529 1529
1503 1504 1506 1508 1510 1511 1512 1513 1514 1515 1516 1517 1517 1519 1520 1520 1520 1521 1522 1521 1521 1521 1520 1520 1520 1520 1520 1521 1521 1521 1521 1521 1522 1522 1523 1524 1524 1525 1526 1526 1526 1527 1528 1528
1505 1506 1508 1509 1510 1512 1512 1513 1514 1515 1515 1516 1517 1518 1519 1519 1519 1520 1521 1520 1520 1520 1520 1519 1519 1519 1520 1520 1520 1520 1521 1521 1521 1522 1523 1523 1524 1525 1525 1525 1525 1526 1526 1527
1505 1507 1508 1510 1511 1511 1512 1513 1513 1514 1515 1516 1516 1517 1517 1518 1518 1519 1519 1519 1519 1519 1519 1519 1519 1519 1519 1519 1519 1520 1520 1521 1521 1522 1523 1523 1524 1525 1525 1525 1525 1526 1527 1528
1506 1507 1509 1509 1510 1511 1512 1512 1513 1514 1514 1515 1516 1516 1516 1517 1517 1517 1518 1519 1519 1519 1519 1519 1519 1519 1519 1519 1519 1520 1520 1521 1522 1522 1523 1523 1524 1525 1525 1525 1526 1526 1527 1528
1506 1507 1509 1509 1510 1511 1511 1512 1512 1513 1513 1514 1515 1515 1516 1516 1517 1517 1517 1518 1518 1518 1518 1518 1519 1519 1519 1519 1519 1520 1521 1521 1522 1523 1523 1524 1525 1525 1525 1526 1526 1527 1527 1528
1506 1507 1508 1509 1510 1511 1511 1511 1511 1512 1512 1513 1514 1514 1514 1515 1516 1516 1516 1516 1517 1517 1517 1518 1518 1519 1519 1519 1519 1520 1521 1521 1522 1523 1523 1524 1524 1525 1525 1526 1526 1526 1527 1527
1505 1506 1507 1508 1509 1509 1510 1510 1511 1511 1512 1512 1513 1513 1513 1514 1515 1515 1515 1515 1516 1517 1517 1517 1518 1518 1519 1519 1520 1520 1521 1522 1522 1523 1523 1524 1524 1524 1525 1525 1526 1526 1527 1527
1504 1505 1506 1507 1507 1508 1509 1509 1510 1510 1511 1511 1512 1512 1513 1513 1514 1514 1515 1515 1516 1516 1517 1517 1518 1518 1519 1520 1520 1521 1521 1522 1522 1523 1523 1523 1524 1524 1525 1525 1525 1526 1526 1526
1503 1504 1504 1505 1506 1506 1507 1508 1508 1509 1509 1510 1511 1511 1512 1513 1513 1514 1514 1515 1516 1516 1517 1517 1518 1518 1519 1520 1520 1521 1521 1522 1522 1523 1523 1523 1524 1524 1525 1525 1525 1525 1525 1526
1501 1502 1503 1503 1504 1505 1505 1506 1507 1508 1509 1510 1511 1511 1512 1512 1513 1514 1514 1515 1515 1516 1517 1518 1518 1519 1519 1520 1520 1521 1521 1522 1522 1523 1523 1524 1524 1524 1525 1525 1525 1525 1525 1525
1500 1501 1501 1502 1502 1503 1504 1505 1506 1507 1508 1509 1510 1511 1512 1513 1513 1514 1515 1516 1516 1517 1518 1519 1519 1520 1520 1521 1521 1522 1522 1523 1523 1524 1524 1525 1525 1525 1525 1525 1525 1525 1524 1524
1499 1500 1500 1501 1501 1502 1503 1504 1506 1507 1508 1509 1511 1512 1513 1513 1514 1515 1516 1517 1517 1518 1519 1519 1520 1521 1521 1522 1522 1523 1524 1524 1525 1525 1525 1525 1525 1525 1525 1525 1524 1524 1524 1523
1499 1500 1500 1501 1502 1503 1504 1505 1506 1507 1508 1510 1511 1512 1513 1514 1515 1516 1517 1518 1518 1519 1520 1521 1522 1522 1523 1523 1524 1524 1525 1526 1526 1526 1526 1526 1526 1526 1525 1525 1524 1524 1523 1522